Regional Weather Roundup
Issued by NWS

Home | Current Version | Previous Version | Graphics & Text | Print | Product List | Glossary On
Versions: 1 2 3 4 5 6 7 8 9 10 11 12 13 14 15 16 17 18 19 20 21 22 23 24 25 26 27 28 29 30 31 32 33 34 35 36 37 38 39 40 41 42 43 44 45 46 47 48 49 50
000
ASUS45 KCYS 300610
RWRWY

WYOMING REGIONAL WEATHER ROUNDUP
NATIONAL WEATHER SERVICE CHEYENNE WY
1200 AM MDT SAT APR 30 2016

NOTE:  "FAIR" INDICATES FEW OR NO CLOUDS BELOW 12,000 FEET
WITH NO SIGNIFICANT WEATHER AND/OR OBSTRUCTIONS TO VISIBILITY.

WYZ001-300700-
YELLOWSTONE NATIONAL PARK

CITY           SKY/WX    TMP DP  RH WIND       PRES   REMARKS
LK YELLOWSTONE   N/A     32  23  69 CALM      29.98S
6HR MIN TEMP:  30; 6HR MAX TEMP:  40;

W YELLOWSTONE  NOT AVBL

$$
WYZ002>013-054>058-071-098>099-300700-
NORTHERN WYOMING

CITY           SKY/WX    TMP DP  RH WIND       PRES   REMARKS
JACKSON        CLOUDY    34  34 100 S3        29.93S
CODY           CLOUDY    39  34  81 CALM      29.99S
GREYBULL       CLOUDY    47  34  60 NW7       29.97F
6HR MIN TEMP:  47; 6HR MAX TEMP:  51;

WORLAND        FAIR      40  37  89 SW6       29.97S
6HR MIN TEMP:  40; 6HR MAX TEMP:  47;

SHERIDAN       CLOUDY    41  36  82 E5        30.03R
6HR MIN TEMP:  41; 6HR MAX TEMP:  47;

BUFFALO          N/A    N/A N/A N/A MISG      30.03R
GILLETTE       CLOUDY    39  36  89 E5        30.02R
6HR MIN TEMP:  38; 6HR MAX TEMP:  43; 6HR PCP:  0.04;

HULETT         CLOUDY    37  34  87 E5        30.04S WCI  34
NEWCASTLE      CLOUDY    39  32  75 NE6       30.02R WCI  35

$$
WYZ014>020-022>026-101>103-300700-
CENTRAL WYOMING

CITY           SKY/WX    TMP DP  RH WIND       PRES   REMARKS
BIG PINEY      CLOUDY    34  28  79 S7        29.94R WCI  28
6HR MIN TEMP:  34; 6HR MAX TEMP:  46;

PINEDALE       CLOUDY    32  32 100 NE3       29.94F
DUBOIS         LGT SNOW  30  28  93 SE6       29.96F WCI  24
LANDER         LGT SNOW  33  32  96 W5        29.97F FOG     WCI  29
6HR MIN TEMP:  33; 6HR MAX TEMP:  36; 6HR PCP:  0.17;

RIVERTON       FLURRIES  34  32  92 NW8       29.99S WCI  27
6HR MIN TEMP:  34; 6HR MAX TEMP:  38; 6HR PCP:  0.17;

CASPER         CLOUDY    35  31  85 E9        29.96S WCI  28
6HR MIN TEMP:  34; 6HR MAX TEMP:  36; 6HR PCP:  0.03;

DOUGLAS        LGT SNOW  32  32 100 NW6       29.98S VSB 3/4 WCI  26
6HR MIN TEMP:  32; 6HR MAX TEMP:  40; 6HR PCP:  0.05;


$$
WYZ021-027>030-104>119-300700-
SOUTHERN WYOMING

CITY           SKY/WX    TMP DP  RH WIND       PRES   REMARKS
EVANSTON       FAIR      34  25  69 E8        29.90S WCI  27
6HR MIN TEMP:  34; 6HR MAX TEMP:  45;

KEMMERER         N/A     32  30  93 E6        29.93S WCI  26
FORT BRIDGER   PTCLDY    34  34 100 E5        29.94S WCI  30
ROCK SPRINGS   CLOUDY    33  29  85 NE12      29.92S WCI  24
6HR MIN TEMP:  33; 6HR MAX TEMP:  41;

DIXON          CLOUDY    36  32  86 W7        29.87S WCI  30
RAWLINS        CLOUDY    31  28  89 NE10      29.90S WCI  22
6HR MIN TEMP:  31; 6HR MAX TEMP:  34;

SARATOGA       LGT SNOW  32  32 100 NW5       29.88R WCI  27
LARAMIE        LGT SNOW  27  26  96 NE7       29.88S FOG     WCI  19
6HR MIN TEMP:  28; 6HR MAX TEMP:  30; 6HR PCP:  0.06;

CHEYENNE       LGT SNOW  30  29  96 N9        29.88F FOG     WCI  22
6HR MIN TEMP:  30; 6HR MAX TEMP:  32; 6HR PCP:  0.08;

TORRINGTON     LGT SNOW  32  32 100 N3        29.93F FOG
6HR MIN TEMP:  32; 6HR MAX TEMP:  37; 6HR PCP:  0.20;

PINE BLUFFS    LGT SNOW  32  32 100 N10       29.90F WCI  24

$$



USA.gov is the U.S. government's official web portal to all federal, state and local government web resources and services.